[[{"header":{"parameterUnit":"m.s-1","parameterCategory":1,"la1":30.2991,"la2":30.254,"lo1":-89.0895,"lo2":-89.0444,"dy":0.0017,"dx":0.0017,"nx":28,"ny":28,"refTime":"2025-11-25T03:00:00:Z","depth":0,"parameterNumber":2,"parameterNumberName":"U-component_of_WINDS"},"data":[0,0,0,0,0,0,0,0,0,0,0,0,0,0,0,0,0,0,0,0,0,0,0,0,0,0,0,0,0,0,0,0,0,0,0,0,0,0,0,0,0,0,0,0,0,0,0,0,0,0,0,0,0,0,0,0,0,0,-4.0084,-4.0084,0,-4.0102,-4.0102,-4.0103,-4.0023,-4.0021,-4.0018,-4.0016,-4.0035,-4.0038,-4.0041,0,0,0,0,0,0,0,0,0,0,0,0,0,-3.9983,-3.9985,-4.0084,-4.0084,-4.0085,-4.0102,-4.0102,-4.0103,-4.0024,-4.0021,-4.0018,-4.0015,-4.0035,-4.0038,-4.0041,0,0,0,0,0,0,0,0,0,0,0,0,0,-4.0017,-3.9986,-4.0084,-4.0047,-4.0044,-4.0102,-4.0102,-4.0103,-4.0024,-4.0021,-4.0017,-4.0014,-4.0034,-4.0037,-4.0041,-4.0136,0,0,-4.0054,-4.0055,0,0,0,0,0,0,0,0,-4.0015,-4.002,-4.0052,-4.005,-4.0046,-4.0057,-4.0074,-4.0114,-4.0025,-4.0032,-4.0016,-4.0012,-4.0045,-4.0048,-4.0059,-4.0137,-4.0138,-4.0054,-4.0056,-4.0058,-4.0059,0,0,0,0,0,0,0,-4.0013,-4.0019,-4.0091,-4.0053,-4.0049,-4.003,-4.0031,-4.0081,-4.0058,-4.0031,-4.0025,-4.0028,-4.0043,-4.0056,-4.0059,-4.0138,-4.0054,-4.0058,-4.006,-4.0062,-4.0296,-4.0299,0,0,0,0,0,0,-4.0015,-4.0018,-4.0091,-4.0092,-4.0022,-4.0035,-4.0036,-4.0057,-4.0057,-4.0054,-4.0031,-4.0025,-4.005,-4.0055,-4.006,-4.017,-4.0058,-4.0062,-4.0064,-4.0292,-4.0297,-4.0301,0,0,0,0,0,0,-4.0013,-4.0022,-4.009,-4.0053,-4.006,-4.0041,-4.0065,-4.0059,-4.0071,-4.0057,-4.0053,-4.0048,-4.0048,-4.0054,-4.0118,-4.017,-4.0064,-4.0067,-4.0287,-4.0293,-4.0299,-4.0392,0,0,0,0,0,0,-4.0011,-4.0022,-4.0057,-4.0055,-4.0063,-4.0147,-4.0068,-4.0062,-4.0079,-4.007,-4.0072,-4.0069,-4.0046,-4.0112,-4.0122,-4.0173,-4.0071,-4.0283,-4.029,-4.0297,-4.0384,-4.04,-4.0414,0,0,0,0,0,-4.0007,-4.0082,-4.0059,-4.0068,-4.0106,-4.015,-4.0155,-4.0126,-4.0083,-4.0118,-4.011,-4.0069,-4.0163,-4.012,-4.013,-4.0183,-4.0279,-4.0288,-4.0296,-4.0378,-4.0397,-4.0414,0,0,0,0,0,0,-4.0091,-4.0081,-4.0055,-4.0132,-4.0143,-4.0137,-4.018,-4.0148,-4.0171,-4.0162,-4.0126,-4.0127,-4.0197,-4.0197,-4.0148,-4.0275,-4.0214,-4.0225,-4.0272,-4.0291,-4.0305,-4.0303,-4.0074,0,0,0,0,0,-4.0118,-4.0155,-4.0145,-4.0214,-4.022,-4.02,-4.0218,-4.0196,-4.0205,-4.0209,-4.0205,-4.0216,-4.0248,-4.027,-4.0299,-4.0385,-4.0385,-4.0427,-4.0442,-4.0455,-4.0464,-4.051,-4.0528,-4.0329,-4.0329,-4.0329,0,0,-4.0175,-4.0174,-4.0199,-4.023,-4.0236,-4.0275,-4.0204,-4.0248,-4.0277,-4.0216,-4.0275,-4.0274,-4.0284,-4.036,-4.0393,-4.0361,-4.0519,-4.0466,-4.0476,-4.0478,-4.052,-4.0539,-4.0556,-4.0335,-4.0334,-4.0333,0,0,-4.0297,-4.0301,-4.0359,-4.0366,-4.0376,-4.0363,-4.0377,-4.0377,-4.0373,-4.0433,-4.0388,-4.0423,-4.0479,-4.0488,-4.05,-4.0631,-4.0594,-4.0642,-4.0718,-4.0763,-4.0779,-4.0793,-4.0838,-4.0855,-4.0651,-4.0652,-4.0652,0,-4.0366,-4.0422,-4.0392,-4.044,-4.0455,-4.0403,-4.0462,-4.0471,-4.049,-4.0502,-4.0467,-4.0537,-4.0541,-4.0618,-4.065,-4.0662,-4.0677,-4.0639,-4.0779,-4.0793,-4.0805,-4.0848,-4.0865,-4.0657,-4.0657,-4.0656,-4.0655,0,-4.0507,-4.0547,-4.0592,-4.0612,-4.0633,-4.0686,-4.0665,-4.069,-4.0667,-4.0657,-4.072,-4.0723,-4.0751,-4.0769,-4.0746,-4.0844,-4.0824,-4.0785,-4.0722,-4.083,-4.087,-4.0886,-4.0665,-4.0663,-4.0661,-4.066,0,0,-4.0678,-4.0683,-4.07,-4.0708,-4.0717,-4.0748,-4.08,-4.0828,-4.085,-4.0867,-4.0908,-4.0959,-4.0924,-4.0938,-4.0917,-4.0957,-4.1059,-4.0913,-4.0913,-4.0939,-4.1166,-4.1193,-4.1213,-4.1037,-4.104,-4.1042,-4.1165,0,-4.0797,-4.0883,-4.0859,-4.0947,-4.0984,-4.0937,-4.0982,-4.0993,-4.0987,-4.1018,-4.1012,-4.1047,-4.0999,-4.1007,-4.1045,-4.1039,-4.1104,-4.103,-4.1075,-4.1077,-4.107,-4.1233,-4.1262,-4.1376,-4.118,-4.1183,-4.1185,0,-4.0945,-4.0968,-4.1059,-4.1063,-4.1077,-4.1118,-4.1143,-4.1174,-4.1186,-4.1179,-4.1196,-4.1168,-4.122,-4.116,-4.1231,-4.1181,-4.1199,-4.1199,-4.1203,-4.1203,-4.1135,-4.1236,-4.1413,-4.1429,-4.1209,-4.1207,-4.1205,0,-4.1059,-4.1113,-4.1174,-4.1183,-4.119,-4.1219,-4.1224,-4.1233,-4.1252,-4.1275,-4.1287,-4.1316,-4.1331,-4.1355,-4.1335,-4.1293,-4.141,-4.1347,-4.1404,-4.1405,-4.1428,-4.1426,-4.1607,-4.1444,-4.1444,-4.1444,-4.1444,0,-4.1192,-4.1249,-4.1225,-4.1262,-4.1325,-4.1299,-4.1362,-4.1362,-4.1371,-4.1408,-4.1371,-4.1407,-4.138,-4.1414,-4.14,-4.1461,-4.1469,-4.1464,-4.1459,-4.1466,-4.1466,-4.1474,-4.1465,-4.1448,-4.1447,-4.1447,-4.1446,0,-4.1328,-4.1314,-4.1377,-4.138,-4.1382,-4.1428,-4.143,-4.1465,-4.1458,-4.1506,-4.1516,-4.1504,-4.1542,-4.1527,-4.1567,-4.1558,-4.1635,-4.1621,-4.163,-4.1626,-4.1683,-4.1677,-4.1873,-4.1897,-4.1722,-4.1723,-4.1725,0,-4.1412,-4.1455,-4.1463,-4.1485,-4.1492,-4.1528,-4.1548,-4.1525,-4.1547,-4.1566,-4.16,-4.1635,-4.1661,-4.1725,-4.1721,-4.1752,-4.1737,-4.1804,-4.1741,-4.1746,-4.1735,-4.1732,-4.1735,-4.1815,-4.1817,-4.1819,-4.182,0,-4.1563,-4.1554,-4.1584,-4.1613,-4.1637,-4.1659,-4.1677,-4.1697,-4.1676,-4.1703,-4.1742,-4.1763,-4.1805,-4.184,-4.1869,-4.1874,-4.1844,-4.1841,-4.1855,-4.186,-4.1863,-4.186,-4.1662,-4.1835,-4.1834,-4.1832,-4.1832,-4.1831,-4.1674,-4.171,-4.1721,-4.1756,-4.1768,-4.1786,-4.1819,-4.1817,-4.1849,-4.1881,-4.1867,-4.1912,-4.1925,-4.196,-4.197,-4.2006,-4.1979,-4.2001,-4.2006,-4.201,-4.2017,-4.1861,-4.2011,-4.2011,-4.201,-4.201,-4.201,0,-4.182,-4.1826,-4.1859,-4.1885,-4.1914,-4.1885,-4.1904,-4.1929,-4.1969,-4.1984,-4.2012,-4.2057,-4.2093,-4.2092,-4.2125,-4.2154,-4.2141,-4.2163,-4.2159,-4.216,-4.2039,-4.2023,-4.2173,-4.2173,-4.2173,-4.2173,-4.2173,-4.2173,-4.19,-4.1959,-4.1953,-4.2018,-4.2024,-4.2067,-4.2081,-4.2098,-4.211,-4.2162,-4.2191,-4.2192,-4.2201,-4.2235,-4.2266,-4.2265,-4.2278,-4.2305,-4.2299,-4.2185,-4.2169,-4.2153,-4.2137,-4.2309,-4.2309,-4.2416,-4.2417,-4.2418]},{"header":{"parameterUnit":"m.s-1","parameterCategory":1,"la1":30.2991,"la2":30.254,"lo1":-89.0895,"lo2":-89.0444,"dy":0.0017,"dx":0.0017,"nx":28,"ny":28,"refTime":"2025-11-25T03:00:00:Z","depth":0,"parameterNumber":3,"parameterNumberName":"V-component_of_WINDS"},"data":[0,0,0,0,0,0,0,0,0,0,0,0,0,0,0,0,0,0,0,0,0,0,0,0,0,0,0,0,0,0,0,0,0,0,0,0,0,0,0,0,0,0,0,0,0,0,0,0,0,0,0,0,0,0,0,0,0,0,1.4098,1.4098,0,1.4117,1.4117,1.4117,1.4147,1.4148,1.4148,1.4149,1.4166,1.4166,1.4166,0,0,0,0,0,0,0,0,0,0,0,0,0,1.4087,1.4087,1.4098,1.4098,1.4098,1.4117,1.4117,1.4117,1.4147,1.4148,1.4148,1.4149,1.4166,1.4166,1.4166,0,0,0,0,0,0,0,0,0,0,0,0,0,1.4097,1.4087,1.4098,1.4115,1.4117,1.4117,1.4117,1.4117,1.4147,1.4148,1.4148,1.4149,1.4166,1.4166,1.4165,1.4149,0,0,1.4165,1.4165,0,0,0,0,0,0,0,0,1.4097,1.4098,1.4112,1.4114,1.4116,1.413,1.412,1.4128,1.4147,1.4135,1.4149,1.415,1.4153,1.4154,1.4156,1.415,1.415,1.4165,1.4165,1.4165,1.4165,0,0,0,0,0,0,0,1.4096,1.4097,1.4105,1.4113,1.4115,1.4122,1.4125,1.4121,1.4139,1.4136,1.4139,1.4141,1.4154,1.4156,1.4156,1.4151,1.4165,1.4165,1.4165,1.4165,1.4135,1.4134,0,0,0,0,0,0,1.4093,1.4096,1.4105,1.4106,1.4108,1.4122,1.4124,1.4125,1.414,1.4143,1.414,1.4142,1.4156,1.4156,1.4157,1.414,1.4165,1.4165,1.4165,1.4136,1.4135,1.4134,0,0,0,0,0,0,1.4092,1.4093,1.4104,1.4102,1.4104,1.4121,1.4121,1.4125,1.4127,1.4142,1.4145,1.4138,1.4156,1.4157,1.4152,1.4141,1.4165,1.4165,1.4136,1.4135,1.4134,1.4106,0,0,0,0,0,0,1.4092,1.4093,1.4086,1.4101,1.4104,1.4098,1.4121,1.4125,1.4127,1.4129,1.4141,1.4144,1.4157,1.4152,1.4151,1.4142,1.4165,1.4137,1.4136,1.4135,1.4107,1.4104,1.41,0,0,0,0,0,1.4091,1.4076,1.4086,1.4087,1.4096,1.4097,1.4098,1.4114,1.4126,1.412,1.413,1.4144,1.4143,1.4151,1.4151,1.4141,1.4138,1.4136,1.4135,1.4109,1.4104,1.41,0,0,0,0,0,0,1.4058,1.4079,1.4089,1.4079,1.4086,1.4102,1.4095,1.4108,1.4112,1.4114,1.4133,1.4135,1.4127,1.4134,1.4142,1.4127,1.4143,1.4141,1.4123,1.4119,1.4115,1.4114,1.4165,0,0,0,0,0,1.405,1.405,1.4067,1.4056,1.406,1.4077,1.4078,1.409,1.4098,1.41,1.411,1.4117,1.4119,1.4119,1.4121,1.4109,1.4113,1.4102,1.4099,1.4096,1.4094,1.409,1.4086,1.4128,1.4128,1.4128,0,0,1.4032,1.4044,1.4042,1.405,1.4057,1.4057,1.4079,1.4077,1.4077,1.41,1.4096,1.4104,1.4113,1.4104,1.4101,1.4109,1.4084,1.4094,1.4091,1.4091,1.4088,1.4084,1.408,1.4127,1.4127,1.4127,0,0,1.4,1.4008,1.4001,1.4008,1.402,1.4032,1.403,1.4045,1.4051,1.4048,1.4066,1.4066,1.4068,1.4074,1.4078,1.4052,1.4065,1.4052,1.4032,1.4029,1.4025,1.4023,1.4014,1.4011,1.405,1.405,1.405,0,1.3976,1.3977,1.3995,1.3993,1.3997,1.402,1.4013,1.4019,1.403,1.4032,1.4042,1.4046,1.4054,1.4048,1.4042,1.4044,1.4043,1.405,1.4024,1.4022,1.4019,1.4012,1.4009,1.4048,1.4048,1.4049,1.4049,0,1.3948,1.3948,1.3941,1.3953,1.3956,1.3951,1.397,1.397,1.3983,1.3994,1.3991,1.4002,1.4007,1.4007,1.4018,1.4004,1.4009,1.4021,1.4037,1.4014,1.4007,1.4004,1.4046,1.4047,1.4047,1.4047,0,0,1.3893,1.3918,1.3915,1.3922,1.3937,1.3938,1.3935,1.3942,1.3943,1.395,1.3949,1.3952,1.3964,1.3968,1.398,1.3977,1.3958,1.399,1.3991,1.3984,1.3945,1.3936,1.3932,1.3967,1.3967,1.3966,1.3944,0,1.3865,1.3862,1.388,1.3872,1.3873,1.3897,1.3895,1.3904,1.3915,1.3918,1.393,1.3932,1.3948,1.3951,1.3948,1.3961,1.395,1.3962,1.3966,1.3966,1.3964,1.3928,1.3918,1.3897,1.3942,1.3941,1.3941,0,1.383,1.3838,1.3831,1.3849,1.385,1.3848,1.3858,1.386,1.3872,1.388,1.3886,1.3902,1.3901,1.3917,1.3917,1.3925,1.3928,1.3935,1.3934,1.3935,1.3952,1.3929,1.389,1.3887,1.3937,1.3937,1.3937,0,1.3792,1.3801,1.3799,1.3803,1.3825,1.3823,1.3831,1.3845,1.3849,1.3857,1.386,1.3867,1.3871,1.3877,1.3894,1.3904,1.3893,1.3909,1.39,1.39,1.3896,1.3896,1.3858,1.3898,1.3898,1.3898,1.3898,0,1.3759,1.3754,1.3782,1.3781,1.3776,1.3798,1.3793,1.3804,1.3816,1.3818,1.3838,1.3839,1.3861,1.3865,1.3879,1.3878,1.3879,1.3886,1.389,1.3885,1.3884,1.3887,1.3889,1.3897,1.3897,1.3897,1.3897,0,1.3715,1.3734,1.3733,1.3755,1.376,1.3756,1.3774,1.3774,1.3788,1.3789,1.3791,1.3812,1.3818,1.3836,1.3845,1.3855,1.385,1.3856,1.3846,1.3848,1.3838,1.3839,1.3801,1.3798,1.3838,1.3838,1.3838,0,1.3693,1.369,1.3711,1.3715,1.3723,1.3727,1.3732,1.3754,1.3758,1.3773,1.3772,1.3779,1.3787,1.3795,1.3811,1.3819,1.3826,1.3813,1.3827,1.3823,1.3827,1.3828,1.3828,1.3809,1.3808,1.3808,1.3808,0,1.3651,1.3661,1.3668,1.3678,1.3684,1.3693,1.3703,1.3704,1.3729,1.3733,1.374,1.3746,1.3757,1.3765,1.3776,1.3785,1.3801,1.3803,1.3802,1.3796,1.3791,1.3795,1.3838,1.3804,1.3804,1.3804,1.3804,1.3805,1.3618,1.3617,1.3633,1.364,1.3651,1.3661,1.3663,1.3677,1.3684,1.3695,1.3708,1.3714,1.3728,1.3746,1.3754,1.3759,1.3767,1.3765,1.3764,1.3763,1.3761,1.379,1.3761,1.3761,1.3761,1.3762,1.3762,0,1.3578,1.359,1.3597,1.3611,1.3618,1.3633,1.3646,1.365,1.3656,1.3668,1.3676,1.3685,1.3693,1.3711,1.3721,1.3722,1.373,1.3724,1.3725,1.3727,1.3753,1.3754,1.3718,1.3718,1.3718,1.3718,1.3718,1.3718,1.3558,1.3558,1.3571,1.3578,1.359,1.3597,1.3603,1.3613,1.3623,1.3633,1.3641,1.3653,1.3668,1.368,1.3689,1.3694,1.3697,1.3689,1.3697,1.3721,1.3725,1.3729,1.373,1.369,1.369,1.367,1.367,1.367]}]]